World > North America > United States > New York

North Petersburg, New York Regional Weather

Lat: 42.82N, Lon: 73.33W
Wx Zone: NYZ054
Feedback

North Petersburg, NY Regional Weather

Expires:201910141400;;695798
ASUS41 KALY 141310
RWRALY

NEW YORK STATE HOURLY WEATHER ROUNDUP
NATIONAL WEATHER SERVICE ALBANY NY
900 AM EDT MON OCT 14 2019

NOTE: "FAIR" INDICATES FEW OR NO CLOUDS BELOW 12,000 FEET WITH NO
SIGNIFICANT WEATHER AND/OR NO OBSTRUCTIONS TO VISIBILITY.


NYZ032-033-038>043-046>054-057>066-NYZ062>081-082-084-141400-
EAST

  
CITY           SKY/WX    TMP DP  RH WIND       PRES   REMARKS
ALBANY         FAIR      47  43  86 S3        29.98R                  
GLENS FALLS    FAIR      44  41  89 CALM      29.96R                  
POUGHKEEPSIE   PTSUNNY   54  50  86 S3        29.99R                  
NEWBURGH       PTSUNNY   54  52  94 W6        30.01R                  
MONTGOMERY     FAIR      51  49  92 S5        29.99R                  
WHITE PLAINS   PTSUNNY   58  55  90 W5        29.99R                  
ISLIP          FOG       57  57 100 NE3       29.99S VSB 1/2          
NEW YORK CITY  PTSUNNY   62  54  74 W5        30.00R                  
CENTRAL PARK   CLOUDY    60  54  80 W5        30.03R                  
$$


SKY/WX - Weather  TMP - Temperature  DP - Dew Point  RH - Relative Humidity
WIND - Wind Direction/Speed PRES - Barometric Pressure VSB - Visibility
WCI - Wind Chill Index E13G22 Wind - East Wind 13 mph/Gusts of 22 mph